GW1392 Weather Reports


time (UTC)temp
C
wind
direction
speed
KPH
gust
KPH
rain 1hr
cm
rain 24hr
cm
rain mn
cm
humidity
%
barometer
mb
20260505011554 9 162 6.4 9.7 0.00 0.00 0.00 87 1006.5
20260505010043 9 205 4.8 9.7 0.00 0.00 0.00 86 1006.3
20260505004543 9 168 4.8 9.7 0.00 0.00 0.00 87 1006.1
20260505003041 9 186 4.8 11.3 0.00 0.00 0.00 86 1005.9
20260505001540 9 169 6.4 9.7 0.00 0.00 0.00 85 1005.6
20260505000051 10 189 8.0 11.3 0.00 0.00 0.00 82 1005.6
20260504234546 10 165 8.0 11.3 0.00 0.00 0.00 80 1005.4
20260504233058 10 175 4.8 11.3 0.00 0.00 0.00 81 1005.1
20260504231540 10 197 3.2 8.0 0.00 0.00 0.00 80 1004.9
20260504230040 11 202 9.7 12.9 0.00 0.00 0.00 77 1004.8
20260504224540 12 198 8.0 14.5 0.00 0.00 0.00 73 1004.6
20260504223054 11 195 6.4 11.3 0.00 0.00 0.00 75 1004.5
20260504221538 11 205 9.7 16.1 0.00 0.00 0.00 76 1004.6
20260504220035 11 200 8.0 16.1 0.00 0.00 0.00 77 1004.5
20260504214533 12 192 8.0 12.9 0.00 0.00 0.00 74 1004.4
20260504213048 13 184 8.0 16.1 0.00 0.00 0.00 71 1004.4
20260504211535 13 205 11.3 16.1 0.00 0.00 0.00 67 1004.3
20260504210035 13 198 4.8 9.7 0.00 0.00 0.00 72 1004.2
20260504204540 13 189 0.0 9.7 0.00 0.00 0.00 69 1004.2
20260504203027 13 186 0.0 4.8 0.00 0.00 0.00 71 1004.3
20260504201523 13 192 0.0 4.8 0.00 0.00 0.00 72 1004.4
20260504200024 12 168 0.0 1.6 0.00 0.00 0.00 73 1004.5
20260504194520 12 191 4.8 6.4 0.00 0.00 0.00 75 1004.4
20260504193020 11 193 1.6 6.4 0.00 0.00 0.00 78 1004.6
20260504191518 10 191 0.0 4.8 0.00 0.00 0.00 80 1004.7
20260504190017 10 198 6.4 9.7 0.00 0.00 0.00 81 1004.8
20260504184516 10 221 4.8 9.7 0.00 0.00 0.00 80 1004.9
20260504183016 10 204 4.8 8.0 0.00 0.00 0.00 82 1004.8
20260504181516 11 177 4.8 14.5 0.00 0.00 0.00 79 1004.9
20260504180018 11 188 11.3 17.7 0.00 0.00 0.00 76 1004.8
20260504174517 12 180 8.0 14.5 0.00 0.00 0.00 73 1004.7
20260504173015 11 207 16.1 25.7 0.00 0.00 0.00 77 1004.6
20260504171513 10 197 20.9 29.0 0.00 0.00 0.00 77 1004.6
20260504150107 11 188 17.7 20.9 0.00 0.00 0.00 73 1006.0
20260504081551 4 274 0.0 0.0 0.00 0.08 0.00 76 1007.1
20260504044541 3 30 0.0 0.0 0.00 0.08 0.00 78 1007.0
20260504043030 3 30 0.0 0.0 0.00 0.08 0.00 77 1007.0
20260504041529 4 30 0.0 0.0 0.00 0.08 0.00 77 1007.1
20260504040031 4 30 0.0 0.0 0.00 0.08 0.00 76 1006.9
20260504034524 5 30 0.0 0.0 0.00 0.08 0.08 75 1006.8
20260504033024 5 30 0.0 0.0 0.00 0.08 0.08 74 1006.7
20260504031524 5 30 0.0 1.6 0.00 0.08 0.08 72 1006.6
20260504030022 5 29 0.0 1.6 0.00 0.08 0.08 70 1006.6
20260504024519 6 29 0.0 1.6 0.00 0.08 0.08 68 1006.6
20260504023017 6 26 0.0 0.0 0.00 0.08 0.08 67 1006.5
20260504021517 6 25 0.0 0.0 0.00 0.08 0.08 64 1006.5
20260504020018 7 51 0.0 3.2 0.00 0.08 0.08 62 1006.4
20260504014516 7 309 0.0 4.8 0.00 0.08 0.08 60 1006.3
20260504013015 7 46 0.0 6.4 0.00 0.08 0.08 59 1006.2